Wind_Speed
34 35 36 37 37 38 38 39 39 39 38 37 37 36 35 34 33 32 32 32 33 33 32 32 32 32 32 34 35 35 36 37 38 39 39 39 40 40 40 39 38 38
35 36 37 38 38 39 39 39 39 38 37 36 34 32 30 30 29 29 29 29 29 29 30 30 29 29 29 29 30 31 31 32 33 36 38 40 41 41 42 43 43 44
35 36 37 38 38 38 37 36 35 34 33 31 29 27 26 27 27 26 26 25 25 26 28 28 27 27 27 28 28 28 29 29 29 29 31 34 37 39 41 42 43 43
34 35 35 35 35 34 33 32 31 30 28 27 26 25 25 25 25 24 24 23 23 24 25 25 25 26 26 27 28 29 29 29 29 28 27 28 29 31 33 35 37 38
31 31 32 31 30 29 29 28 28 27 25 25 25 25 25 25 24 24 23 23 23 23 23 24 24 25 25 26 27 28 29 30 30 30 29 28 28 28 28 28 29 31
29 29 29 29 28 28 27 27 26 25 25 24 25 25 25 24 24 24 25 25 25 24 25 25 25 25 25 25 26 27 28 28 29 29 29 29 28 28 27 27 27 27
28 29 29 28 28 28 28 27 26 25 24 24 24 24 24 24 24 25 25 26 27 27 27 28 27 27 27 27 27 27 28 28 28 27 27 26 26 26 26 26 26 26
29 29 29 28 28 28 28 27 26 25 24 24 24 24 24 24 24 25 26 27 27 28 28 29 30 30 30 30 30 30 30 30 29 29 27 26 25 25 25 26 26 26
29 29 28 28 28 28 28 27 25 24 23 23 24 24 24 25 26 26 27 28 28 28 29 30 30 31 32 32 33 33 33 33 32 31 30 29 28 27 26 26 26 26
30 29 28 28 27 27 27 26 25 24 23 24 25 26 26 27 28 29 30 30 31 31 31 31 31 31 32 32 33 33 34 34 33 33 32 31 30 29 28 27 27 27
30 29 28 28 27 26 25 24 23 23 24 26 27 28 29 30 31 32 32 33 33 33 33 33 33 33 33 33 33 33 33 33 33 32 32 31 31 30 29 29 28 28
30 29 28 27 27 26 25 23 23 24 25 27 28 29 30 31 33 34 34 34 34 34 34 34 35 36 35 35 34 34 34 34 33 33 32 32 31 31 31 30 30 29
29 28 27 27 26 26 25 24 24 25 26 27 28 29 30 31 33 34 34 34 34 34 34 34 35 36 35 35 34 34 34 34 34 34 34 33 33 33 32 32 31 31
27 26 26 25 25 25 24 24 24 25 26 26 27 29 30 32 33 33 34 34 34 34 34 34 35 34 34 34 34 33 33 34 34 35 34 34 35 35 34 34 34 34
25 24 24 23 23 24 24 24 23 24 25 26 28 30 32 32 33 33 34 34 35 35 35 34 35 34 34 34 34 34 34 34 34 34 34 34 35 35 36 36 36 36
26 25 24 23 22 22 22 22 23 24 26 28 29 31 32 33 33 33 34 34 35 35 35 35 35 35 36 36 36 35 35 35 34 34 33 33 34 35 36 36 37 37
27 26 26 25 23 22 22 23 24 26 27 29 30 31 31 32 33 34 34 34 35 35 35 36 36 36 37 37 38 38 37 36 36 35 34 34 34 35 36 36 37 37
27 27 27 27 26 26 26 26 27 28 29 30 30 31 32 33 33 34 34 34 35 36 36 37 37 37 38 39 39 41 41 40 38 38 37 37 37 38 38 38 38 38
27 27 27 28 28 28 29 29 30 30 31 31 32 33 34 34 35 35 36 36 36 37 37 38 38 38 39 40 41 43 44 44 43 42 41 41 41 41 41 41 41 41
27 28 29 29 30 30 30 31 31 32 33 33 34 35 35 36 36 37 37 38 38 38 39 40 40 40 41 42 43 44 46 47 47 46 44 44 44 44 44 44 44 44
29 30 30 30 31 31 32 33 33 34 35 35 36 37 37 38 38 39 40 40 40 41 41 42 42 43 43 44 46 47 48 49 50 50 49 48 48 48 48 48 48 48
31 31 32 32 33 34 34 35 36 36 37 38 38 39 40 40 41 42 42 43 44 44 44 45 45 45 46 47 49 51 52 52 53 53 53 53 52 52 52 52 52 52
33 34 34 35 35 36 37 38 39 40 40 41 42 42 43 44 44 45 46 46 47 48 48 48 48 48 49 50 51 53 54 54 55 55 56 56 56 55 55 55 55 55
36 37 37 38 39 40 41 41 42 43 44 45 46 46 47 48 48 49 49 50 51 51 51 51 52 52 52 52 53 54 56 57 57 57 57 58 58 59 59 59 59 59
40 41 42 43 43 44 45 45 46 47 47 48 49 49 50 50 51 51 52 53 53 54 55 55 55 55 55 55 56 56 58 60 60 60 60 61 61 62 62 63 63 62
45 45 46 46 47 47 48 48 48 49 49 50 51 51 52 53 53 54 55 56 56 57 58 58 58 59 59 59 59 58 59 60 62 62 63 63 63 63 64 64 64 64
Wind_Direction
271 271 272 272 272 272 272 272 273 273 272 271 271 271 271 271 270 269 268 268 268 269 269 269 268 267 265 264 264 265 265 263 260 259 258 257 257 258 259 260 261 263
272 272 272 272 272 272 272 272 271 271 271 270 269 269 268 266 266 266 266 267 267 267 267 267 267 266 266 266 267 266 267 267 264 261 259 258 257 258 259 261 263 264
273 273 273 272 271 271 270 269 267 266 266 266 264 262 262 262 263 264 265 266 266 267 267 267 266 265 264 264 265 265 265 266 267 265 263 260 259 258 258 259 260 262
272 272 272 271 269 268 265 263 261 261 261 261 260 260 260 261 262 262 264 265 266 267 268 270 270 269 268 267 265 265 265 266 266 267 266 265 262 260 259 257 256 256
269 268 267 265 264 262 259 258 258 259 259 259 259 260 260 261 261 261 262 263 265 267 269 271 271 271 271 271 271 270 269 268 268 269 269 269 267 265 263 261 258 257
262 261 260 258 257 257 257 258 259 259 260 260 261 263 264 265 265 265 265 265 265 266 267 269 270 271 271 271 272 272 272 272 270 270 270 269 267 264 263 262 261 260
257 255 254 253 253 254 256 258 259 261 262 264 265 267 269 270 271 271 272 272 272 270 269 269 269 269 269 270 270 270 271 272 271 270 268 266 264 261 260 260 260 259
252 250 249 250 251 253 255 256 258 260 262 264 266 268 270 271 272 274 274 274 275 275 274 274 273 272 270 270 270 270 270 270 271 271 269 266 262 260 258 257 257 257
246 246 246 248 249 251 253 254 256 258 261 264 266 269 271 273 274 275 276 276 277 277 277 275 274 273 272 270 269 269 270 270 270 270 270 269 266 263 260 257 256 256
243 243 244 245 247 249 250 252 255 258 262 266 270 273 276 278 280 281 282 282 282 281 280 278 276 273 271 270 269 269 269 269 269 269 269 269 268 267 265 263 260 258
240 241 242 244 245 246 246 248 253 258 264 268 272 276 279 282 285 286 286 285 284 284 282 280 278 276 273 271 270 270 270 270 270 270 271 271 270 270 269 268 266 264
238 238 239 241 242 242 244 247 253 260 265 270 273 278 282 285 286 287 286 284 283 283 281 280 279 278 276 274 272 271 272 272 273 273 273 273 273 273 272 272 271 269
237 236 236 236 237 240 244 249 255 261 265 269 274 279 283 285 286 284 283 282 282 281 280 279 278 278 277 275 273 272 271 271 272 274 275 275 275 275 275 274 274 273
241 238 237 236 237 241 246 252 256 261 265 270 275 280 282 283 282 280 279 279 280 280 279 278 277 277 276 275 273 272 271 271 271 272 274 275 275 275 275 275 274 274
254 250 247 245 244 246 250 254 259 263 269 273 277 279 281 280 278 276 276 278 279 279 278 277 276 276 276 275 274 273 272 271 271 271 272 272 273 274 274 274 274 273
265 263 261 257 255 255 258 263 268 271 274 276 278 279 279 278 276 275 275 277 278 278 278 277 276 276 276 276 275 274 272 272 271 271 271 271 271 272 273 273 274 274
266 266 265 266 268 271 273 276 278 279 278 278 278 278 278 277 276 276 277 277 278 278 278 278 278 278 279 279 278 277 274 273 273 273 273 272 271 271 271 272 273 274
263 264 265 268 273 277 280 281 281 280 279 278 277 277 277 277 277 276 277 277 277 277 277 277 278 278 279 279 280 279 277 276 275 276 276 276 275 274 273 273 273 273
263 264 266 269 274 277 279 280 280 279 278 278 278 278 278 277 277 277 276 276 276 276 276 276 277 277 278 278 278 278 277 277 277 277 277 277 276 276 275 275 274 274
268 269 271 273 276 277 278 279 278 278 277 277 277 276 276 276 277 277 277 277 276 277 277 277 278 279 279 279 279 278 278 278 278 278 278 277 277 276 275 275 275 274
275 276 277 279 280 280 280 280 279 279 278 278 278 278 279 279 279 279 280 280 280 280 279 279 280 281 281 281 281 280 279 279 279 280 279 279 278 278 277 276 275 275
280 281 282 282 283 283 283 283 283 283 283 283 283 283 283 283 283 283 282 282 282 282 282 281 281 281 282 281 281 281 280 280 280 280 280 279 279 278 278 277 277 276
282 282 283 283 283 284 285 285 286 286 286 286 286 286 286 285 285 285 284 284 284 283 283 282 282 282 282 282 281 281 280 280 280 280 280 280 280 279 278 277 277 276
285 285 285 286 286 286 286 286 286 287 287 287 287 287 287 287 287 287 286 286 285 285 284 284 283 283 282 282 282 282 281 280 280 280 280 280 280 280 279 278 278 277
289 289 288 288 288 288 288 287 287 287 287 287 287 287 288 287 287 287 287 287 286 286 285 285 285 284 284 284 283 283 282 281 281 281 281 280 280 280 280 279 279 278
291 290 290 290 290 290 289 289 289 288 288 288 288 288 288 288 287 287 287 287 286 286 285 285 285 285 284 284 284 283 283 282 281 281 280 280 280 280 280 279 279 278
Height
2997 2997 2997 2997 2997 2997 2997 2997 2996 2996 2996 2996 2996 2995 2995 2996 2996 2996 2996 2996 2996 2996 2996 2996 2995 2996 2996 2996 2997 2997 2998 2999 3000 3001 3002 3003 3004 3005 3005 3006 3006 3007
2993 2993 2992 2992 2992 2992 2992 2992 2992 2992 2992 2992 2991 2991 2991 2992 2992 2992 2992 2992 2992 2992 2992 2992 2992 2992 2993 2993 2994 2994 2995 2996 2996 2997 2998 2998 2999 3000 3000 3001 3001 3002
2988 2988 2988 2988 2988 2988 2988 2988 2987 2987 2988 2988 2988 2988 2988 2988 2988 2988 2988 2988 2988 2988 2988 2988 2989 2989 2990 2990 2991 2991 2992 2992 2993 2993 2993 2994 2994 2994 2995 2996 2996 2997
2983 2983 2983 2984 2984 2984 2984 2983 2984 2984 2984 2984 2984 2984 2984 2984 2985 2985 2985 2985 2985 2985 2985 2985 2985 2986 2986 2987 2987 2988 2988 2989 2989 2990 2990 2990 2990 2990 2990 2990 2991 2991
2979 2979 2979 2980 2980 2980 2980 2980 2980 2980 2981 2981 2981 2981 2981 2981 2981 2981 2982 2982 2982 2982 2982 2982 2982 2983 2983 2984 2984 2984 2985 2985 2985 2986 2986 2986 2986 2986 2986 2987 2986 2986
2974 2975 2975 2976 2976 2976 2976 2977 2977 2977 2977 2977 2978 2978 2978 2978 2978 2978 2979 2979 2979 2979 2979 2979 2979 2980 2980 2981 2981 2981 2982 2982 2982 2982 2982 2982 2982 2982 2983 2983 2983 2983
2970 2971 2971 2972 2972 2972 2972 2973 2973 2974 2974 2974 2974 2974 2975 2975 2975 2975 2976 2976 2976 2976 2976 2976 2977 2977 2977 2977 2978 2978 2979 2979 2979 2979 2978 2978 2979 2979 2979 2979 2979 2979
2966 2967 2967 2967 2967 2968 2968 2969 2969 2970 2970 2971 2971 2971 2971 2972 2972 2972 2973 2973 2973 2973 2973 2974 2974 2974 2974 2974 2975 2975 2975 2976 2975 2975 2975 2975 2975 2976 2976 2976 2976 2976
2962 2963 2963 2963 2963 2964 2964 2965 2965 2966 2966 2967 2967 2967 2968 2968 2968 2969 2969 2969 2970 2970 2970 2970 2970 2970 2971 2971 2971 2971 2971 2972 2972 2972 2972 2972 2972 2972 2972 2973 2973 2973
2958 2959 2959 2959 2959 2959 2960 2961 2961 2962 2962 2963 2963 2964 2964 2964 2964 2965 2965 2965 2965 2965 2966 2966 2966 2967 2967 2967 2967 2967 2967 2967 2968 2968 2968 2968 2968 2968 2968 2969 2969 2970
2954 2955 2955 2955 2955 2956 2956 2957 2957 2958 2958 2958 2959 2959 2960 2960 2960 2960 2960 2960 2961 2961 2961 2961 2962 2962 2962 2963 2963 2963 2963 2963 2963 2963 2964 2964 2964 2964 2964 2965 2965 2966
2950 2950 2950 2950 2951 2952 2952 2952 2953 2953 2954 2954 2955 2955 2955 2955 2955 2956 2956 2956 2956 2956 2956 2956 2957 2957 2958 2958 2958 2958 2959 2959 2959 2959 2959 2959 2959 2960 2960 2960 2961 2961
2946 2946 2946 2946 2947 2948 2948 2948 2948 2949 2950 2950 2951 2951 2951 2951 2951 2951 2952 2952 2952 2952 2952 2952 2952 2952 2953 2953 2954 2954 2954 2954 2955 2955 2955 2955 2955 2955 2956 2956 2956 2957
2944 2943 2943 2942 2943 2943 2944 2944 2945 2945 2946 2946 2946 2946 2947 2947 2947 2947 2948 2948 2948 2948 2948 2948 2948 2948 2948 2948 2949 2950 2950 2950 2950 2951 2951 2951 2951 2951 2951 2951 2952 2952
2942 2942 2941 2940 2940 2940 2940 2941 2941 2941 2941 2941 2942 2942 2943 2943 2943 2944 2943 2943 2943 2943 2944 2944 2943 2943 2943 2944 2944 2945 2945 2945 2946 2946 2947 2946 2946 2946 2946 2946 2947 2947
2941 2940 2939 2938 2938 2937 2937 2937 2937 2937 2937 2938 2938 2939 2939 2939 2939 2939 2939 2939 2939 2939 2939 2939 2939 2939 2938 2938 2938 2939 2940 2940 2941 2941 2942 2942 2942 2942 2941 2941 2941 2941
2938 2937 2937 2936 2936 2935 2934 2934 2934 2934 2934 2934 2934 2934 2935 2935 2935 2935 2935 2935 2934 2934 2934 2934 2934 2933 2933 2933 2932 2932 2933 2935 2935 2936 2936 2936 2937 2937 2937 2937 2936 2936
2934 2934 2933 2933 2933 2932 2931 2931 2931 2931 2931 2931 2930 2930 2931 2930 2931 2930 2930 2930 2930 2930 2930 2929 2929 2929 2928 2928 2927 2925 2926 2928 2930 2930 2931 2931 2931 2931 2931 2931 2931 2931
2930 2930 2929 2929 2929 2928 2928 2928 2927 2927 2927 2926 2926 2926 2926 2926 2926 2926 2926 2926 2926 2925 2925 2925 2924 2924 2923 2923 2922 2920 2920 2921 2923 2924 2925 2925 2925 2925 2925 2925 2925 2925
2926 2926 2925 2925 2924 2924 2924 2923 2923 2923 2922 2922 2922 2922 2922 2921 2921 2920 2920 2921 2921 2920 2920 2919 2919 2918 2918 2918 2916 2914 2915 2915 2915 2916 2918 2918 2918 2919 2919 2919 2919 2919
2922 2922 2921 2920 2920 2920 2919 2919 2919 2918 2918 2918 2918 2918 2917 2916 2915 2915 2915 2914 2914 2914 2914 2914 2914 2913 2912 2911 2909 2908 2909 2909 2908 2909 2909 2910 2911 2911 2911 2912 2912 2912
2918 2917 2917 2916 2916 2915 2915 2914 2914 2913 2913 2913 2912 2912 2911 2910 2909 2909 2909 2908 2908 2908 2907 2907 2908 2907 2906 2905 2903 2901 2902 2902 2901 2901 2901 2902 2903 2903 2903 2904 2904 2904
2913 2913 2912 2912 2911 2911 2910 2909 2909 2908 2907 2907 2906 2905 2904 2904 2903 2902 2902 2901 2901 2901 2900 2900 2900 2900 2899 2898 2896 2895 2894 2895 2894 2894 2894 2893 2893 2894 2894 2895 2895 2895
2909 2908 2908 2907 2906 2905 2905 2904 2903 2902 2901 2900 2900 2899 2898 2897 2897 2895 2894 2894 2893 2893 2892 2892 2892 2892 2892 2891 2890 2888 2886 2886 2887 2887 2886 2885 2885 2884 2885 2885 2886 2886
2904 2903 2902 2901 2901 2900 2899 2898 2897 2896 2895 2894 2893 2892 2891 2890 2889 2888 2887 2886 2885 2884 2884 2884 2883 2883 2883 2882 2882 2880 2878 2878 2878 2879 2878 2877 2876 2876 2875 2875 2875 2876
2898 2897 2896 2895 2894 2893 2892 2891 2890 2889 2888 2887 2886 2885 2884 2882 2882 2881 2880 2879 2878 2877 2876 2875 2875 2874 2874 2873 2872 2871 2870 2869 2870 2869 2868 2867 2867 2866 2865 2865 2865 2865